Location: Chinna Viriv?da
(16.5281°N, 81.0493°E)
Time: 14:47:47
(UTC+00:00)

ARIANE 5 R/B - Pass Details

Date: 14 April 2026
Orbit: 212 x 20922 km, 6.4° (Epoch: 10 May)

Event Time Altitude Azimuth Distance (km) Brightness Sun altitude
Rises 12:22:23 0° 244° (WSW) 2,511 5.7 5.9°
Reaches altitude 10° 12:23:47 10° 233° (SW) 2,002 5.0 5.6°
Maximum altitude 12:27:54 38° 162° (SSE) 1,801 3.8 4.6°
Drops below altitude 10° 12:45:54 10° 101° (ESE) 8,471 6.7 0.4°
Enters shadow 12:58:50 - 98° (E) 12,452 7.4 -2.7°
